Regional Weather Roundup
Issued by NWS Sioux Falls, SD

Home | Current Version | Previous Version | Graphics & Text | Print | Product List | Glossary Off
Versions: 1 2 3 4 5 6 7 8 9 10 11 12 13 14 15 16 17 18 19 20 21 22 23 24 25 26 27 28 29 30 31 32 33 34 35 36 37 38 39 40 41 42 43 44 45 46 47 48 49 50

000
ASUS43 KFSD 260502
RWRFSD

WEATHER ROUNDUP FOR SE SOUTH DAKOTA/SW MINNESOTA/NW IOWA
NATIONAL WEATHER SERVICE SIOUX FALLS SD
1200 AM CDT TUE MAY 26 2015

NOTE: "FAIR" INDICATES FEW OR NO CLOUDS BELOW 12,000 FEET WITH NO
SIGNIFICANT WEATHER AND OR OBSTRUCTIONS TO VISIBILITY.


SDZ038>040-050-052>070-260600-
SOUTHEAST SOUTH DAKOTA

CITY           SKY/WX    TMP DP  RH WIND       PRES   REMARKS
BROOKINGS      PTCLDY    54  52  94 N6        29.84R
CHAMBERLAIN    CLOUDY    56  49  77 N7        29.88R
HURON          CLOUDY    54  50  86 N6        29.87R
MADISON        FAIR      54  54 100 NE12      29.83S
MITCHELL       MOCLDY    57  54  89 N7        29.85R
SIOUX FALLS    MOCLDY    58  54  86 N8        29.82R
WINNER         MOCLDY    56  50  80 N8        29.88R
YANKTON        CLOUDY    63  59  88 CALM      29.80F
$$

MNZ071-072-080-081-089-090-097-098-260600-
SOUTHWEST MINNESOTA

CITY           SKY/WX    TMP DP  RH WIND       PRES   REMARKS
FAIRMONT       CLOUDY    63  55  77 CALM      29.82R
JACKSON        CLOUDY    61  59  94 VRB5      29.82S
LUVERNE        CLOUDY    61  55  82 NE7       29.82S
MARSHALL       PTCLDY    57  50  77 NW5       29.82R
MONTEVIDEO     CLOUDY    57  55  94 N3        29.83R
REDWOOD FALLS  PTCLDY    58  55  90 W8        29.81R
TRACY          PTCLDY    56  54  93 NW5       29.83S
WINDOM         MOCLDY    57  55  94 CALM      29.82S
WORTHINGTON    MOCLDY    59  54  82 N7        29.83R
$$

IAZ001>003-012>014-020>022-031-032-NEZ013-014-SDZ071-260600-
NORTHWEST IOWA

CITY           SKY/WX    TMP DP  RH WIND       PRES   REMARKS
DENISON        CLOUDY    64  61  88 S14G21    29.79S
ESTHERVILLE    CLOUDY    65  58  78 SE9       29.81R
SIOUX CITY     CLOUDY    66  57  72 SW8       29.78S
SPENCER        LGT RAIN  65  60  84 SW14      29.83R
$$

ABBREVIATIONS USED IN REMARKS
   TC - TEMPERATURE IN CELSIUS
  WCI - WIND CHILL INDEX
   HX - HEAT INDEX
  VSB - VISIBILITY



USA.gov is the U.S. government's official web portal to all federal, state and local government web resources and services.